Temp
-3 -3 -3 -3 -3 -3 -3 -3 -2 -2 -2 -2 -2 -2 -2 -2 -3 -3 -4 -3 -3 -4 -5 -5 -5 -5 -7 -6 -6 -6 -5 -6 -6 -6 -4 -4 -5 -5 -6 -6 -6 -6 -5 -6 -6
-3 -3 -3 -3 -3 -3 -3 -3 -3 -2 -2 -3 -2 -2 -2 -2 -2 -2 -3 -4 -4 -5 -5 -6 -6 -5 -6 -6 -6 -7 -5 -7 -6 -6 -6 -4 -5 -5 -4 -5 -6 -7 -6 -6 -6
-3 -3 -3 -3 -3 -3 -3 -3 -3 -3 -2 -2 -2 -2 -2 -2 -2 -2 -3 -3 -4 -4 -5 -5 -5 -5 -5 -5 -6 -6 -5 -7 -7 -8 -7 -6 -6 -6 -6 -5 -6 -6 -5 -6 -6
-4 -4 -4 -4 -3 -3 -3 -3 -3 -3 -3 -2 -2 -2 -2 -2 -2 -2 -2 -3 -3 -4 -4 -5 -5 -5 -5 -5 -7 -5 -6 -7 -8 -7 -7 -6 -6 -6 -6 -5 -5 -6 -6 -6 -6
-4 -4 -4 -4 -4 -3 -3 -3 -3 -3 -3 -3 -3 -3 -3 -2 -3 -2 -2 -2 -2 -3 -4 -4 -5 -5 -5 -5 -7 -5 -5 -7 -8 -8 -7 -8 -7 -7 -5 -5 -5 -5 -6 -6 -6
-4 -4 -4 -4 -4 -3 -3 -3 -3 -3 -3 -3 -3 -3 -3 -3 -3 -3 -3 -3 -3 -3 -3 -4 -5 -6 -6 -6 -7 -5 -5 -7 -8 -8 -7 -8 -8 -7 -6 -6 -5 -6 -5 -5 -5
-4 -4 -4 -4 -3 -3 -3 -3 -3 -3 -3 -3 -3 -3 -3 -3 -3 -3 -2 -3 -3 -3 -3 -4 -5 -5 -6 -6 -7 -6 -4 -5 -6 -7 -6 -8 -7 -7 -6 -6 -5 -6 -6 -6 -5
-4 -4 -4 -4 -3 -3 -3 -3 -3 -3 -3 -3 -3 -3 -3 -3 -3 -3 -3 -3 -3 -3 -3 -3 -4 -5 -6 -6 -7 -6 -5 -5 -7 -8 -7 -8 -8 -6 -6 -7 -6 -6 -6 -6 -6
-4 -4 -4 -3 -3 -3 -3 -3 -3 -3 -3 -2 -2 -3 -2 -3 -3 -3 -3 -3 -3 -3 -3 -3 -3 -4 -4 -6 -7 -6 -6 -5 -6 -8 -8 -8 -8 -7 -7 -6 -6 -7 -6 -5 -6
-4 -4 -4 -3 -4 -3 -3 -3 -3 -2 -2 -2 -3 -3 -3 -2 -3 -3 -3 -3 -3 -3 -3 -3 -3 -3 -3 -4 -4 -6 -6 -6 -6 -8 -8 -8 -7 -7 -7 -7 -7 -7 -6 -5 -5
-4 -4 -4 -4 -4 -3 -3 -3 -3 -2 -3 -2 -3 -3 -3 -2 -2 -3 -3 -3 -3 -3 -3 -3 -3 -2 -3 -4 -5 -6 -7 -6 -7 -8 -8 -8 -8 -8 -6 -7 -7 -7 -6 -6 -5
-5 -5 -5 -4 -3 -4 -3 -3 -3 -2 -2 -2 -2 -3 -2 -2 -3 -2 -3 -3 -3 -3 -3 -2 -2 -3 -3 -4 -5 -6 -7 -7 -6 -7 -8 -8 -8 -8 -7 -7 -6 -6 -7 -6 -5
-5 -5 -5 -5 -5 -4 -4 -4 -3 -2 -2 -4 -3 -2 -3 -1 -3 -3 -2 -3 -3 -3 -3 -3 -3 -4 -4 -3 -4 -5 -6 -7 -6 -8 -6 -7 -8 -7 -6 -6 -5 -6 -6 -5 -5
-5 -5 -5 -5 -5 -5 -4 -4 -4 -3 -2 -2 -3 -3 -2 -2 -2 -3 -3 -3 -3 -3 -3 -3 -3 -3 -3 -3 -4 -4 -5 -7 -7 -7 -7 -7 -7 -7 -7 -6 -5 -5 -6 -5 -4
-5 -5 -5 -5 -5 -5 -5 -4 -4 -4 -3 -3 -2 -3 -3 -3 -3 -3 -3 -2 -2 -3 -2 -3 -3 -3 -3 -2 -3 -3 -6 -7 -7 -7 -7 -7 -8 -7 -7 -5 -6 -5 -5 -6 -5
-5 -5 -5 -5 -5 -5 -5 -5 -4 -4 -3 -4 -3 -3 -3 -3 -4 -3 -3 -3 -3 -3 -2 -3 -3 -3 -3 -3 -4 -4 -6 -7 -7 -7 -8 -6 -7 -6 -6 -5 -6 -6 -5 -6 -6
-5 -5 -5 -6 -5 -5 -5 -5 -5 -4 -4 -4 -4 -3 -3 -3 -4 -4 -3 -3 -3 -3 -3 -3 -3 -3 -3 -3 -3 -4 -5 -6 -7 -7 -5 -7 -7 -4 -4 -5 -5 -6 -6 -5 -6
-6 -6 -6 -6 -6 -5 -5 -5 -4 -4 -4 -5 -5 -4 -4 -4 -4 -4 -4 -3 -3 -3 -3 -3 -3 -3 -3 -3 -3 -3 -4 -4 -5 -6 -5 -6 -6 -3 -5 -6 -6 -6 -6 -6 -5
-6 -6 -6 -5 -5 -5 -5 -5 -4 -5 -5 -5 -5 -6 -5 -5 -4 -4 -4 -4 -4 -4 -4 -3 -3 -4 -4 -4 -4 -4 -4 -5 -5 -6 -6 -5 -6 -5 -5 -6 -6 -6 -7 -5 -5
-5 -5 -6 -5 -5 -5 -5 -5 -5 -5 -5 -5 -5 -6 -5 -5 -5 -4 -4 -3 -4 -5 -5 -4 -3 -4 -4 -4 -4 -4 -5 -5 -5 -5 -5 -4 -5 -3 -4 -5 -6 -6 -6 -6 -6
-4 -4 -6 -6 -5 -5 -4 -4 -5 -7 -6 -6 -5 -6 -6 -6 -5 -4 -4 -4 -4 -5 -7 -6 -5 -5 -5 -4 -4 -4 -4 -4 -5 -5 -4 -4 -3 -4 -4 -6 -6 -6 -6 -6 -6
-6 -5 -8 -6 -8 -7 -6 -6 -6 -6 -8 -8 -7 -6 -7 -8 -6 -5 -4 -4 -4 -4 -4 -5 -7 -4 -5 -5 -5 -5 -5 -5 -4 -4 -4 -3 -1 -4 -5 -6 -6 -6 -6 -6 -6
-8 -9 -9 -9 -8 -9 -9 -8 -7 -7 -7 -9 -8 -7 -7 -9 -8 -6 -4 -5 -5 -5 -4 -5 -3 -4 -5 -6 -7 -6 -4 -4 -5 -5 -4 -3 -2 -4 -6 -6 -6 -6 -6 -6 -7
-15 -14 -15 -16 -15 -14 -13 -13 -11 -10 -9 -9 -10 -9 -8 -8 -10 -9 -7 -6 -7 -7 -5 -6 -4 -3 -2 -4 -5 -4 -5 -4 -4 -5 -3 -2 -3 -4 -5 -6 -6 -6 -7 -7 -7
-23 -23 -24 -23 -23 -21 -20 -19 -18 -16 -14 -13 -12 -13 -11 -9 -9 -9 -9 -8 -8 -9 -8 -8 -5 -4 -2 -2 -6 -6 -5 -5 -5 -4 -3 -3 -3 -4 -5 -6 -6 -7 -6 -7 -7
-26 -26 -27 -26 -26 -25 -25 -24 -23 -22 -21 -20 -17 -17 -14 -12 -12 -11 -10 -10 -9 -10 -10 -9 -7 -6 -3 -3 -4 -7 -7 -5 -4 -5 -4 -4 -4 -5 -5 -5 -6 -6 -7 -6 -8
-26 -26 -26 -26 -26 -26 -26 -25 -25 -24 -24 -23 -22 -21 -19 -17 -15 -13 -12 -10 -10 -11 -10 -10 -9 -9 -6 -7 -7 -9 -3 -6 -5 -5 -5 -4 -5 -5 -5 -5 -5 -6 -7 -7 -7
Height
5899 5898 5897 5897 5895 5894 5892 5891 5889 5887 5886 5886 5885 5885 5885 5886 5887 5887 5887 5886 5885 5886 5889 5892 5894 5895 5895 5895 5897 5903 5902 5900 5899 5898 5898 5899 5901 5904 5907 5907 5906 5906 5906 5908 5907
5897 5897 5895 5894 5894 5893 5891 5889 5888 5886 5885 5884 5884 5884 5883 5883 5885 5884 5886 5885 5884 5886 5887 5889 5892 5894 5895 5892 5897 5901 5901 5900 5901 5898 5897 5896 5901 5905 5908 5908 5907 5907 5906 5908 5908
5894 5894 5893 5892 5891 5890 5889 5888 5886 5885 5884 5883 5882 5882 5881 5881 5882 5882 5882 5883 5883 5883 5883 5886 5886 5891 5894 5893 5899 5898 5898 5897 5900 5900 5900 5899 5902 5905 5905 5907 5907 5907 5906 5907 5907
5892 5891 5890 5889 5888 5886 5885 5884 5884 5883 5882 5881 5880 5880 5879 5878 5879 5879 5880 5880 5881 5881 5880 5883 5885 5889 5891 5895 5896 5897 5892 5892 5898 5903 5901 5900 5900 5903 5907 5909 5907 5905 5906 5904 5905
5889 5888 5887 5886 5885 5884 5882 5881 5880 5880 5880 5879 5879 5878 5878 5877 5877 5876 5877 5878 5879 5879 5879 5880 5883 5887 5890 5894 5896 5895 5892 5892 5897 5903 5903 5898 5900 5902 5906 5905 5903 5903 5905 5903 5904
5885 5884 5883 5882 5881 5880 5879 5878 5878 5877 5876 5876 5876 5876 5876 5875 5875 5874 5875 5875 5877 5878 5878 5878 5883 5887 5887 5890 5894 5894 5891 5891 5894 5899 5902 5900 5902 5901 5902 5906 5902 5902 5904 5905 5904
5880 5879 5878 5877 5876 5875 5874 5874 5874 5874 5874 5874 5874 5874 5874 5874 5872 5872 5871 5873 5873 5874 5876 5878 5878 5878 5885 5886 5889 5891 5892 5890 5893 5898 5898 5901 5901 5902 5904 5906 5908 5902 5903 5904 5904
5876 5874 5874 5873 5872 5871 5870 5869 5869 5870 5870 5871 5872 5871 5870 5871 5871 5869 5869 5870 5870 5872 5873 5874 5874 5879 5880 5887 5887 5890 5893 5893 5893 5895 5896 5898 5899 5902 5904 5906 5907 5903 5903 5903 5903
5870 5869 5869 5868 5867 5866 5865 5865 5865 5865 5865 5866 5868 5867 5867 5868 5868 5868 5867 5866 5867 5868 5870 5872 5871 5874 5878 5881 5884 5886 5892 5895 5895 5893 5894 5898 5899 5900 5904 5905 5904 5902 5900 5904 5904
5864 5863 5862 5861 5861 5861 5859 5860 5860 5860 5861 5861 5863 5865 5864 5864 5864 5865 5865 5864 5863 5864 5865 5867 5870 5871 5873 5875 5877 5884 5891 5894 5894 5897 5896 5899 5900 5898 5902 5901 5900 5901 5899 5901 5906
5858 5857 5856 5854 5854 5854 5852 5853 5855 5856 5856 5857 5859 5859 5858 5859 5860 5860 5861 5861 5861 5861 5862 5862 5864 5868 5871 5874 5880 5882 5886 5891 5893 5893 5893 5895 5897 5897 5897 5899 5900 5901 5902 5902 5904
5851 5851 5849 5847 5847 5846 5846 5846 5844 5845 5851 5849 5851 5854 5852 5853 5855 5855 5856 5858 5858 5858 5857 5858 5860 5865 5866 5869 5874 5877 5881 5887 5890 5890 5889 5889 5894 5895 5894 5896 5898 5900 5902 5904 5903
5840 5841 5841 5839 5838 5837 5838 5838 5836 5837 5840 5846 5842 5847 5846 5847 5851 5851 5851 5852 5853 5854 5854 5856 5859 5858 5861 5863 5867 5871 5875 5883 5890 5887 5884 5886 5890 5889 5890 5891 5893 5898 5902 5905 5903
5828 5827 5829 5830 5829 5828 5829 5830 5827 5829 5827 5840 5834 5838 5839 5841 5844 5844 5847 5847 5847 5848 5849 5852 5852 5853 5854 5857 5861 5866 5874 5879 5883 5881 5882 5883 5887 5885 5887 5887 5890 5895 5900 5904 5904
5816 5815 5816 5818 5816 5815 5818 5819 5819 5821 5813 5828 5826 5830 5832 5833 5836 5837 5837 5840 5842 5843 5844 5849 5847 5848 5850 5854 5856 5865 5868 5872 5876 5876 5877 5878 5880 5883 5885 5885 5888 5892 5899 5903 5903
5800 5800 5801 5800 5803 5803 5802 5805 5807 5808 5799 5814 5816 5818 5822 5824 5824 5825 5828 5831 5833 5834 5838 5840 5840 5842 5847 5848 5849 5858 5859 5865 5868 5869 5863 5871 5872 5873 5880 5885 5888 5890 5896 5900 5901
5785 5783 5782 5783 5782 5788 5787 5788 5792 5789 5795 5801 5796 5806 5809 5811 5813 5815 5817 5820 5824 5826 5833 5833 5835 5837 5839 5841 5842 5846 5850 5854 5855 5852 5850 5865 5864 5868 5876 5882 5885 5887 5889 5894 5899
5766 5765 5764 5760 5765 5766 5769 5771 5771 5776 5781 5780 5784 5786 5796 5801 5803 5803 5804 5807 5813 5816 5822 5822 5826 5830 5833 5835 5839 5839 5841 5842 5842 5845 5850 5858 5850 5861 5871 5875 5879 5884 5887 5890 5895
5745 5746 5742 5740 5742 5746 5747 5749 5755 5760 5759 5766 5772 5772 5775 5781 5789 5788 5790 5795 5803 5805 5810 5814 5818 5823 5821 5828 5829 5833 5828 5840 5840 5846 5845 5847 5850 5858 5863 5868 5873 5877 5881 5885 5890
5719 5721 5716 5715 5718 5721 5724 5730 5733 5736 5739 5743 5751 5755 5757 5759 5764 5774 5778 5786 5791 5794 5799 5803 5806 5811 5815 5817 5816 5820 5831 5829 5827 5831 5833 5838 5842 5848 5857 5863 5867 5870 5872 5879 5883
5686 5689 5683 5684 5686 5691 5697 5703 5707 5713 5712 5718 5724 5731 5737 5739 5745 5753 5766 5772 5775 5782 5786 5791 5790 5803 5803 5799 5810 5813 5815 5817 5822 5825 5826 5829 5828 5842 5854 5857 5858 5861 5865 5871 5876
5649 5653 5646 5651 5653 5657 5665 5671 5674 5679 5685 5685 5693 5703 5711 5718 5726 5731 5745 5756 5759 5760 5760 5768 5777 5784 5786 5798 5800 5801 5805 5810 5811 5817 5820 5824 5820 5837 5845 5849 5849 5851 5855 5862 5867
5611 5612 5610 5613 5614 5619 5626 5632 5640 5645 5652 5658 5665 5675 5685 5694 5705 5711 5724 5734 5736 5742 5744 5749 5757 5764 5773 5780 5780 5782 5797 5803 5804 5808 5808 5811 5816 5832 5835 5840 5844 5848 5851 5855 5858
5574 5577 5579 5575 5582 5584 5592 5602 5606 5610 5619 5625 5637 5646 5656 5667 5680 5691 5699 5712 5718 5724 5727 5734 5744 5748 5757 5771 5778 5778 5784 5790 5794 5793 5801 5798 5809 5824 5828 5833 5837 5841 5843 5846 5851
5555 5553 5552 5557 5556 5559 5563 5573 5579 5586 5589 5597 5606 5613 5625 5638 5652 5665 5677 5690 5699 5705 5711 5719 5729 5733 5742 5751 5762 5767 5774 5780 5781 5789 5787 5801 5801 5813 5823 5825 5829 5833 5837 5842 5845
5549 5546 5546 5546 5547 5547 5550 5554 5560 5564 5569 5575 5581 5588 5600 5612 5622 5639 5655 5670 5678 5688 5697 5702 5711 5715 5725 5737 5745 5751 5760 5766 5771 5777 5781 5788 5795 5802 5811 5816 5819 5823 5827 5831 5837
5545 5543 5542 5542 5541 5542 5543 5543 5548 5552 5557 5560 5562 5567 5579 5589 5593 5612 5630 5647 5661 5669 5679 5689 5694 5700 5710 5722 5731 5738 5739 5751 5760 5765 5772 5774 5786 5796 5798 5806 5810 5815 5819 5819 5827
Wind_Speed
8 8 8 7 7 6 6 7 8 9 9 7 5 8 11 10 9 7 12 13 17 21 19 14 11 16 15 16 12 6 5 11 6 9 11 14 20 17 8 7 5 1 3 6 10
10 10 10 10 9 8 8 6 5 6 7 8 6 5 8 12 12 11 3 9 14 19 22 19 16 16 18 16 12 6 10 16 8 14 17 14 18 15 12 11 6 4 6 7 11
13 12 11 11 10 10 9 8 7 6 5 7 6 5 5 8 14 14 12 10 13 15 25 24 22 15 17 18 14 17 17 20 21 21 22 18 15 11 17 11 5 6 5 4 12
13 12 12 11 11 10 9 9 8 8 5 5 5 5 4 8 11 16 14 14 12 16 17 22 22 16 16 10 8 16 16 20 17 5 21 20 13 17 11 5 4 4 4 6 8
13 13 13 13 12 12 12 11 10 9 8 6 5 3 2 6 7 12 17 17 14 12 15 18 21 19 16 17 16 11 10 17 8 8 16 20 21 18 9 10 7 8 5 5 8
15 13 13 14 14 13 12 12 11 11 9 7 4 4 5 3 5 8 11 18 17 13 15 17 14 17 25 21 23 18 12 15 10 9 15 14 21 24 20 15 10 10 6 5 5
18 16 15 14 13 12 12 11 11 11 9 8 6 6 8 4 6 6 8 13 18 19 15 16 22 28 25 25 26 27 17 14 13 11 26 19 16 21 16 11 13 11 8 5 6
21 20 18 17 16 14 13 14 13 10 10 8 7 9 10 7 8 9 8 10 16 20 20 19 25 24 29 25 28 27 24 13 14 13 11 17 17 14 16 11 18 18 13 9 3
20 20 20 19 18 18 16 15 13 13 13 10 9 9 13 9 10 8 11 10 12 19 24 23 22 25 25 29 31 30 24 18 20 18 10 21 24 20 18 10 12 15 15 9 1
23 23 22 22 20 19 21 19 18 17 15 15 11 12 14 14 12 8 11 10 12 15 22 25 25 23 24 27 25 27 20 17 19 21 19 22 18 19 13 15 19 6 12 8 3
27 25 24 25 23 24 27 25 24 22 18 18 15 15 17 15 15 13 12 13 14 12 14 20 23 24 20 19 19 25 24 16 21 24 22 24 20 23 16 12 12 9 5 7 2
33 31 29 29 26 26 28 28 29 27 20 22 22 16 22 17 16 17 16 13 13 13 16 16 12 18 25 22 20 24 25 25 25 24 21 18 24 29 25 10 7 3 6 7 5
37 35 33 33 33 32 30 29 33 32 29 17 26 22 23 22 14 17 20 17 15 18 16 13 9 18 23 26 24 25 27 25 25 23 23 21 29 34 27 19 8 3 4 8 8
40 38 37 38 40 39 36 32 35 34 35 21 30 26 28 27 22 20 19 21 21 19 20 18 18 20 21 26 29 26 23 26 31 30 24 24 30 33 31 19 12 4 4 9 11
45 44 42 39 43 46 45 43 42 39 46 30 33 28 27 28 26 27 30 24 21 22 22 13 23 23 22 18 26 22 27 30 33 30 30 32 32 22 25 19 11 9 5 8 12
51 49 47 46 43 46 47 46 48 48 53 40 39 35 30 29 30 31 30 31 30 29 25 23 24 24 21 23 25 24 33 37 37 37 45 34 27 28 31 20 12 12 11 12 13
54 54 53 52 53 48 50 49 50 54 51 45 49 44 42 41 38 38 36 35 32 32 29 28 26 24 25 26 28 28 36 40 46 52 50 41 42 27 23 18 14 7 10 11 15
56 56 57 59 57 58 56 55 55 55 54 54 52 51 44 42 42 42 42 43 38 38 34 35 31 25 26 25 26 31 35 43 49 52 47 44 50 32 18 17 10 8 13 14 14
64 62 62 62 62 61 63 64 61 59 60 57 53 52 52 50 48 48 50 46 37 37 37 37 36 29 32 25 30 29 40 35 44 47 52 46 49 39 27 25 18 17 22 14 14
64 63 63 66 66 67 65 63 65 67 66 65 60 57 57 57 56 53 54 51 45 39 39 41 40 35 34 34 37 35 28 37 41 48 54 49 51 40 33 25 19 20 22 19 20
72 70 70 69 69 69 68 67 65 63 67 69 69 66 63 63 63 60 55 55 52 44 41 42 45 37 41 46 38 38 39 40 40 38 44 44 40 40 32 29 24 27 20 22 23
79 76 71 74 68 68 68 68 71 72 71 74 76 75 71 70 69 69 63 58 58 58 62 51 43 48 48 43 43 46 41 41 42 40 38 33 30 24 36 37 35 23 18 23 21
83 77 72 71 72 69 69 72 75 78 78 78 78 79 79 76 76 76 71 66 66 66 65 60 60 54 54 53 53 54 47 43 43 43 45 43 33 21 36 44 40 32 29 21 25
68 61 52 52 57 64 65 69 78 83 86 86 84 85 85 85 82 81 80 75 72 70 70 65 65 65 62 54 52 54 52 49 48 50 46 44 39 23 34 47 37 34 26 22 36
38 35 31 26 36 48 56 61 68 76 83 87 88 88 90 91 89 87 86 82 79 75 72 69 71 72 67 60 50 54 53 53 53 49 52 40 43 33 28 49 40 34 40 30 28
28 23 18 9 21 35 39 44 49 57 65 71 80 81 90 91 92 91 93 88 85 78 72 72 74 75 73 67 62 55 58 58 55 50 50 46 42 37 32 44 52 45 36 38 26
23 19 13 8 12 23 32 40 41 40 45 51 56 68 74 79 88 93 97 98 90 84 81 77 78 77 75 69 60 50 64 63 59 56 54 52 43 35 38 34 49 57 49 48 33
Wind_Direction
336 340 340 342 339 324 327 343 339 314 302 301 307 256 244 231 244 227 213 219 229 235 235 223 213 172 178 190 180 132 318 154 104 33 59 34 43 22 37 39 45 196 155 156 164
317 318 315 316 320 322 319 315 316 339 333 304 293 295 254 238 227 240 214 230 235 230 240 229 221 191 191 210 181 183 108 130 79 18 3 13 33 24 45 44 43 173 248 193 183
301 303 305 306 313 319 317 314 316 320 306 333 316 279 275 248 229 231 226 221 225 217 227 229 231 217 199 214 178 195 124 106 44 7 10 3 4 4 25 27 10 297 295 232 206
294 292 291 297 305 312 318 314 307 305 305 291 305 322 264 255 234 230 226 229 228 228 232 226 233 217 215 181 184 196 106 71 34 4 351 359 349 347 27 39 55 12 315 262 224
295 292 289 288 292 298 302 302 306 305 297 290 272 281 308 268 267 233 222 233 234 227 224 217 222 217 216 180 179 202 140 97 88 12 310 331 333 346 353 21 44 35 15 287 228
289 289 289 286 285 285 288 289 292 302 305 294 278 250 260 256 263 268 234 224 236 230 230 222 210 215 210 203 183 206 179 143 166 119 279 286 307 335 338 357 30 24 19 346 253
278 278 276 277 277 278 277 280 276 284 293 293 289 265 254 283 271 259 251 239 224 227 225 217 210 213 215 213 201 216 211 176 168 166 198 276 294 328 355 348 7 19 11 351 283
277 274 273 268 262 262 267 271 275 273 273 274 284 291 287 276 262 266 246 233 234 228 231 214 221 213 212 222 222 225 230 247 172 211 212 270 287 309 357 313 336 1 357 349 285
280 274 268 264 260 259 261 267 276 270 262 251 239 257 279 276 280 259 259 244 232 236 232 229 225 228 217 212 225 230 237 261 190 209 216 257 258 301 325 343 348 355 341 350 175
285 280 273 266 265 264 271 273 276 275 279 271 249 244 260 264 267 266 251 245 239 232 240 238 232 234 225 221 223 229 232 258 192 187 210 233 266 291 303 344 360 359 330 332 133
279 279 273 272 268 263 265 268 274 271 275 274 273 264 246 254 260 258 249 249 247 241 242 249 243 236 243 235 219 217 221 223 176 176 219 240 257 281 310 315 25 25 346 292 247
273 272 271 271 266 265 266 269 267 258 254 260 264 256 263 244 248 257 257 255 250 242 232 241 257 240 231 233 214 218 205 212 206 196 218 216 258 270 281 276 299 312 325 246 183
272 268 266 266 267 265 261 262 265 266 258 240 257 251 253 249 253 255 255 256 252 242 245 241 244 246 235 228 224 211 209 187 217 204 219 205 239 259 279 269 305 47 287 249 172
276 273 268 266 266 262 260 261 261 263 262 247 251 252 254 255 250 253 253 249 250 252 243 239 231 234 238 231 226 217 207 185 202 213 223 199 227 248 261 258 284 269 227 229 200
274 274 272 266 268 265 262 260 260 262 265 261 256 257 250 259 252 250 247 247 244 242 251 244 238 239 241 249 237 212 206 193 201 217 222 215 227 233 239 240 260 171 233 266 223
272 272 271 272 267 266 264 260 258 259 261 260 258 258 257 251 250 247 250 243 244 247 248 243 238 241 239 238 240 219 206 201 204 212 226 219 231 233 219 237 259 251 258 243 248
271 271 271 270 270 265 265 264 260 256 260 258 258 252 250 250 248 246 247 246 249 252 251 250 248 243 239 233 232 219 214 206 210 211 225 221 229 231 214 208 215 235 254 255 262
271 271 272 269 268 267 264 262 260 259 257 257 257 259 253 253 253 252 245 245 245 246 242 239 233 240 244 240 242 238 226 221 217 221 229 221 229 228 219 213 199 260 268 260 269
268 266 270 268 264 262 261 260 261 260 258 254 253 252 253 250 242 243 248 244 241 244 243 244 240 232 235 231 235 234 234 227 222 227 227 232 231 234 222 203 212 228 251 263 274
273 271 270 267 265 263 261 259 256 254 254 254 248 245 247 246 242 236 239 246 239 239 239 238 234 227 231 227 226 227 232 228 226 224 230 236 236 241 233 223 225 240 251 266 280
276 276 275 269 265 260 260 258 250 244 246 244 242 239 237 239 243 242 237 235 237 222 227 232 236 220 224 228 229 228 224 230 230 231 229 240 242 238 232 218 225 231 240 259 256
283 278 276 272 265 261 257 250 247 242 235 237 236 232 230 228 235 240 239 233 235 234 228 218 231 223 228 229 232 230 229 233 237 241 243 246 249 232 221 213 219 226 228 256 258
287 285 279 272 267 258 251 247 240 239 235 231 232 233 229 224 225 230 235 232 231 233 233 224 225 224 222 221 225 227 236 233 231 239 242 245 250 209 214 216 223 224 239 240 240
292 286 275 266 256 251 246 239 238 234 232 230 227 229 229 226 220 223 226 226 225 225 230 228 230 231 227 229 230 230 229 232 234 233 242 248 254 222 210 214 222 221 222 244 243
302 297 284 259 245 241 242 236 234 236 236 231 228 224 226 225 223 219 222 224 224 218 219 221 230 233 235 225 217 233 235 235 235 243 244 250 253 248 217 211 215 219 226 226 254
317 310 305 280 232 235 235 241 235 236 238 239 236 232 225 225 223 216 214 216 217 212 211 216 225 223 230 228 218 218 227 234 238 239 244 248 246 247 235 215 215 219 233 230 240
312 306 303 273 260 233 235 237 230 234 240 245 246 244 236 232 228 221 214 210 210 208 208 213 222 223 226 226 224 221 224 226 233 237 241 242 241 235 240 227 220 222 228 232 226